DW9636 Weather Reports


Display with metric or nautical units.
time (UTC)temp
F
wind
direction
speed
MPH
gust
MPH
rain 1hr
in
rain 24hr
in
rain mn
in
humidity
%
barometer
mb
20260901071523 50 355 0.0 0.0 0.00 0.00 0.00 61 1006.6
20260901070023 51 355 0.0 0.0 0.00 0.00 0.00 60 1006.6
20260901064533 51 355 0.0 0.0 0.00 0.00 0.00 59 1006.5
20260901063018 52 355 0.0 0.0 0.00 0.00 0.00 57 1006.5
20260901061522 53 355 0.0 0.0 0.00 0.00 0.00 56 1006.6
20260901060017 54 355 0.0 0.0 0.00 0.00 0.00 55 1006.6
20260901054518 54 355 0.0 0.0 0.00 0.00 0.00 54 1006.9
20260901053017 55 355 0.0 0.0 0.00 0.00 0.00 54 1006.9
20260901051516 55 355 0.0 0.0 0.00 0.00 0.00 52 1007.0
20260901050016 57 355 0.0 0.0 0.00 0.00 0.00 51 1006.7
20260901044515 58 355 0.0 0.0 0.00 0.00 0.00 49 1006.7
20260901043015 59 355 0.0 0.0 0.00 0.00 0.00 48 1006.6
20260901041514 61 355 0.0 0.0 0.00 0.00 0.00 47 1006.3
20260901040014 62 355 0.0 0.0 0.00 0.00 0.00 45 1006.2
20260901034520 63 355 0.0 0.0 0.00 0.00 0.00 43 1006.0
20260901033013 65 355 0.0 0.0 0.00 0.00 0.00 43 1005.8
20260901031526 66 355 0.0 0.0 0.00 0.00 0.00 41 1005.7
20260901030020 68 355 0.0 0.0 0.00 0.00 0.00 39 1005.6
20260901024521 70 355 0.0 0.0 0.00 0.00 0.00 37 1005.6
20260901023012 71 355 0.0 0.0 0.00 0.00 0.00 35 1005.5
20260901021511 73 355 0.0 0.0 0.00 0.00 0.00 34 1005.4
20260901020010 74 15 0.0 0.0 0.00 0.00 0.00 32 1005.3
20260901014509 76 329 0.0 0.0 0.00 0.00 0.00 31 1005.2
20260901013009 77 323 0.0 0.0 0.00 0.00 0.00 29 1005.1
20260901011509 78 282 0.0 0.0 0.00 0.00 0.00 28 1005.2
20260901010014 80 256 0.0 0.0 0.00 0.00 0.00 24 1005.1
20260901004507 82 229 0.0 0.0 0.00 0.00 0.00 14 1004.5
20260901003005 83 152 0.0 0.0 0.00 0.00 0.00 13 1004.6
20260901001512 84 198 0.0 0.0 0.00 0.00 0.00 13 1004.7
20260901000007 84 207 0.0 0.0 0.00 0.00 0.00 14 1004.7
20260831234606 85 194 1.0 0.0 0.00 0.00 0.00 13 1005.0
20260831233059 85 190 0.0 0.0 0.00 0.00 0.00 13 1005.1
20260831231602 85 180 0.0 0.0 0.00 0.00 0.00 13 1005.0
20260831230134 86 198 0.0 0.0 0.00 0.00 0.00 12 1005.2
20260831224553 86 203 1.0 0.0 0.00 0.00 0.00 12 1005.5
20260831223051 87 200 1.0 0.0 0.00 0.00 0.00 13 1005.7
20260831221605 86 122 0.0 0.0 0.00 0.00 0.00 14 1005.8
20260831220048 87 121 0.0 0.0 0.00 0.00 0.00 13 1006.1
20260831214548 86 206 0.0 0.0 0.00 0.00 0.00 13 1006.2
20260831213048 86 191 1.0 0.0 0.00 0.00 0.00 13 1006.5
20260831211541 84 178 1.0 0.0 0.00 0.00 0.00 15 1006.7
20260831210037 84 134 0.0 0.0 0.00 0.00 0.00 16 1006.9
20260831204535 84 203 0.0 0.0 0.00 0.00 0.00 17 1007.1
20260831203035 83 229 1.0 0.0 0.00 0.00 0.00 16 1007.4
20260831201531 83 169 0.0 0.0 0.00 0.00 0.00 17 1007.7
20260831200028 82 101 0.0 0.0 0.00 0.00 0.00 17 1008.0
20260831194539 80 234 0.0 0.0 0.00 0.00 0.00 19 1008.3
20260831193017 78 205 1.0 0.0 0.00 0.00 0.00 19 1008.6
20260831191514 76 219 0.0 0.0 0.00 0.00 0.00 22 1009.0
20260831190010 73 196 0.0 0.0 0.00 0.00 0.00 22 1009.4
20260831184505 71 207 0.0 0.0 0.00 0.00 0.00 23 1009.8
20260831183001 69 217 0.0 0.0 0.00 0.00 0.00 26 1010.1
20260831181558 68 217 0.0 0.0 0.00 0.00 0.00 28 1010.2
20260831180053 65 238 0.0 0.0 0.00 0.00 0.00 30 1010.6
20260831174557 63 269 0.0 0.0 0.00 0.00 0.00 31 1010.8
20260831173046 61 9 0.0 0.0 0.00 0.00 0.00 34 1010.9
20260831171544 59 9 0.0 0.0 0.00 0.00 0.00 38 1011.1
20260831170106 56 9 0.0 0.0 0.00 0.00 0.00 45 1011.4
20260831164534 53 5 0.0 0.0 0.00 0.00 0.00 50 1011.6
20260831163030 50 5 0.0 0.0 0.00 0.00 0.00 54 1011.8
20260831161524 47 5 0.0 0.0 0.00 0.00 0.00 59 1012.1
20260831160030 44 5 0.0 0.0 0.00 0.00 0.00 62 1012.4
20260831154521 41 5 0.0 0.0 0.00 0.00 0.00 67 1012.4
20260831153019 38 5 0.0 0.0 0.00 0.00 0.00 70 1012.6
20260831151525 35 5 0.0 0.0 0.00 0.00 0.00 73 1012.6
20260831150020 32 5 0.0 0.0 0.00 0.00 0.00 72 1012.6
20260831144525 31 5 0.0 0.0 0.00 0.00 0.00 70 1012.6
20260831143016 29 5 0.0 0.0 0.00 0.00 0.00 69 1012.7
20260831141515 29 5 0.0 0.0 0.00 0.00 0.00 69 1012.6
20260831140020 29 5 0.0 0.0 0.00 0.00 0.00 68 1012.4
20260831134512 29 5 0.0 0.0 0.00 0.00 0.00 68 1012.6
20260831133009 29 5 0.0 0.0 0.00 0.00 0.00 67 1012.5
20260831131508 30 5 0.0 0.0 0.00 0.00 0.00 66 1012.6
20260831130006 30 5 0.0 0.0 0.00 0.00 0.00 66 1012.6
20260831124503 30 5 0.0 0.0 0.00 0.00 0.00 65 1012.5
20260831123001 31 5 0.0 0.0 0.00 0.00 0.00 65 1012.6
20260831121600 31 5 0.0 0.0 0.00 0.00 0.00 64 1012.7
20260831120058 32 5 0.0 0.0 0.00 0.00 0.00 64 1012.8
20260831114556 32 5 0.0 0.0 0.00 0.00 0.00 62 1012.9
20260831113059 33 5 0.0 0.0 0.00 0.00 0.00 62 1013.1
20260831111555 33 5 0.0 0.0 0.00 0.00 0.00 61 1013.0
20260831110049 34 5 0.0 0.0 0.00 0.00 0.00 60 1013.0
20260831104547 34 5 0.0 0.0 0.00 0.00 0.00 60 1012.9
20260831103056 35 5 0.0 0.0 0.00 0.00 0.00 58 1013.0
20260831101541 36 5 0.0 0.0 0.00 0.00 0.00 59 1013.1
20260831100039 36 5 0.0 0.0 0.00 0.00 0.00 58 1013.2
20260831094534 37 5 0.0 0.0 0.00 0.00 0.00 57 1013.3
20260831093033 38 5 0.0 0.0 0.00 0.00 0.00 56 1013.4
20260831091527 39 5 0.0 0.0 0.00 0.00 0.00 55 1013.4
20260831090025 40 5 0.0 0.0 0.00 0.00 0.00 53 1013.4
20260831084521 42 5 0.0 0.0 0.00 0.00 0.00 52 1013.6
20260831083023 43 5 0.0 0.0 0.00 0.00 0.00 50 1013.7
20260831081512 44 5 0.0 0.0 0.00 0.00 0.00 49 1013.6
20260831080025 45 5 0.0 0.0 0.00 0.00 0.00 48 1013.7
20260831074505 46 5 0.0 0.0 0.00 0.00 0.00 46 1013.8
20260831073011 47 5 0.0 0.0 0.00 0.00 0.00 45 1013.9